Flag for U.S.A. Weather past 2 weeks in Bryan – College Station, Texas, U.S.A.

Now
51 °F

Clear.


Feels Like: 49 °F
Forecast: 45 / 62 °F
Wind: 7 mph from East

Location: Easterwood Field

Current Time: Jan 30, 2015 at 10:50:23 PM

Latest Report: Jan 30, 2015 at 9:53 PM


Visibility: 10 mi

Pressure: 30.30 "Hg

Humidity: 54%

Dew point: 35 °F

Location of Bryan – College StationLocation

Historic Weather in Bryan – College Station — Graph

°F

Bryan – College Station temperature yesterday

Maximum temperature yesterday: 72 °F (at 2:53 PM)
Minimum temperature yesterday: 55 °F (at 11:53 PM)
Average temperature yesterday: 63 °F

Past Weeks' High & Low Weather Summary

 TemperatureHumidityPressure
High79 °F (Jan 27, 2:53 PM)100% (Jan 20, 4:53 AM)30.46 "Hg (Jan 20, 4:53 AM)
Low31 °F (Jan 16, 5:53 AM)20% (Jan 18, 1:53 PM)29.88 "Hg (Jan 20, 4:53 PM)
Average53 °F67%30.15 "Hg
* Reported Jan 15 8:53 PM — Jan 30 8:53 PM, Bryan – College Station, Weather by CustomWeather, © 2014

Note: Actual official high and low records may vary slightly from our data, if they occured in-between our weather recording intervals... More about our weather records

Advertising

Bryan – College Station weather history for previous 24 hours

 ConditionsComfort  
Time TempWeatherWind HumidityBarometerVisibility
8:53 PM
Jan 30
51 °FClear.6 mph54%30.31 "Hg10 mi
7:53 PM53 °FClear.7 mph48%30.31 "Hg10 mi
6:53 PM54 °FClear.3 mph47%30.30 "Hg10 mi
5:53 PM56 °FSunny.6 mph44%30.31 "Hg10 mi
4:53 PM59 °FSunny.8 mph39%30.30 "Hg10 mi
3:53 PM60 °FSunny.10 mph39%30.31 "Hg10 mi
2:53 PM59 °FSunny.6 mph41%30.33 "Hg10 mi
1:53 PM58 °FSunny.8 mph43%30.35 "Hg10 mi
12:53 PM55 °FSunny.8 mph47%30.39 "Hg10 mi
11:53 AM52 °FSunny.9 mph53%30.42 "Hg10 mi
10:53 AM50 °FSunny.9 mph57%30.45 "Hg10 mi
9:53 AM48 °FSunny.13 mph59%30.46 "Hg10 mi
8:53 AM47 °FSunny.10 mph64%30.44 "Hg10 mi
7:53 AM47 °FSunny.10 mph61%30.43 "Hg10 mi
6:53 AM47 °FClear.10 mph61%30.42 "Hg10 mi
5:53 AM48 °FPassing clouds.10 mph59%30.39 "Hg10 mi
4:53 AM49 °FClear.10 mph57%30.38 "Hg10 mi
3:53 AM50 °FClear.10 mph54%30.38 "Hg10 mi
2:53 AM51 °FClear.14 mph52%30.38 "Hg10 mi
1:53 AM52 °FClear.16 mph55%30.38 "Hg10 mi
12:53 AM53 °FClear.10 mph52%30.37 "Hg10 mi
11:53 PM
Jan 29
55 °FClear.14 mph49%30.37 "Hg10 mi
10:53 PM58 °FClear.18 mph47%30.35 "Hg10 mi
Weather by CustomWeather, © 2014

See weather overviewHow to use our weather pages